This demonstration page uses our WeatherBlox Daily Observations layout. Learn more.

Hourly Observations for January 20, 2019

Temp ( °F °C ) Dew Point ( °F °C ) Humidity (%) Winds ( mph kmh ) Pressure ( in mb ) Visibility ( mi km ) Precip ( " mm )
12:15 am 00:15 Cloudy with Light Snow 32 0 32 0 100 100 NNE 6 9 29.68 1005 2.5 4.02336 0.04 1.016
12:35 am 00:35 Cloudy with Light Snow 32 0 32 0 100 100 NE 3 6 29.65 1004 2.5 4.02336 0.09 2.286
12:55 am 00:55 Cloudy with Light Wintry Mix 32 0 32 0 100 100 NNE 3 6 29.65 1004 3 4.828032 0.12 3.048
1:15 am 01:15 Cloudy with Light Snow 32 0 32 0 100 100 NE 5 7 29.62 1003 3 4.828032 0.03 0.762
1:35 am 01:35 Cloudy with Light Wintry Mix 32 0 32 0 100 100 NNE 5 7 29.59 1002 4 6.437376 0.05 1.27
1:55 am 01:55 Cloudy with Light Wintry Mix 32 0 32 0 100 100 NNE 5 7 29.56 1001 5 8.04672 0.05 1.27
2:15 am 02:15 Cloudy with Light Wintry Mix 32 0 32 0 100 100 NNE 5 7 29.56 1001 4 6.437376 0.01 0.254
2:35 am 02:35 Cloudy with Light Wintry Mix 32 0 32 0 100 100 N 6 9 29.5 999 4 6.437376 0.01 0.254
2:55 am 02:55 Cloudy with Mist and Fog 32 0 32 0 100 100 NNW 9 15 29.5 999 4 6.437376 0.01 0.254
3:15 am 03:15 Cloudy with Mist and Fog 32 0 32 0 100 100 N 6 9 29.5 999 4 6.437376 0 0
3:35 am 03:35 Cloudy with Light Wintry Mix 32 0 32 0 100 100 NW 7 11 29.47 998 3 4.828032 0 0
3:55 am 03:55 Cloudy with Mist and Fog 32 0 32 0 100 100 NNW 6 9 29.47 998 2 3.218688 0 0
4:15 am 04:15 Cloudy with Mist and Fog 34 1 34 1 100 100 Calm 29.41 996 1.25 2.01168 0 0
4:35 am 04:35 Cloudy with Mist and Fog 34 1 34 1 100 100 NNW 7 11 29.41 996 1 1.609344 0 0
4:55 am 04:55 Cloudy with Light Wintry Mix 34 1 34 1 100 100 N 5 7 29.41 996 1 1.609344 0.01 0.254
5:15 am 05:15 Cloudy with Light Wintry Mix 34 1 34 1 100 100 N 6 9 29.38 995 1.75 2.816352 0 0
5:35 am 05:35 Cloudy with Mist and Fog 34 1 34 1 100 100 NNE 5 7 29.38 995 2 3.218688 0 0
5:55 am 05:55 Cloudy with Mist and Fog 34 1 34 1 100 100 Calm 29.38 995 3 4.828032 0 0
6:15 am 06:15 Cloudy with Mist and Fog 34 1 34 1 100 100 NW 12 19 29.38 995 2.5 4.02336 0 0
6:35 am 06:35 Cloudy with Mist and Fog 34 1 34 1 100 100 N 3 6 29.38 995 5 8.04672 0 0
6:55 am 06:55 Cloudy with Mist and Fog 34 1 34 1 100 100 Calm 29.38 995 5 8.04672 0 0
7:15 am 07:15 Cloudy with Light Rain 34 1 34 1 100 100 NNW 5 7 29.38 995 5 8.04672 0 0
7:35 am 07:35 Cloudy 34 1 34 1 100 100 NW 7 11 29.41 996 7 11.265408 0.01 0.254
7:55 am 07:55 Cloudy 34 1 34 1 100 100 NW 14 22 29.41 996 10 16.09344 0.01 0.254
8:15 am 08:15 Cloudy 34 1 34 1 100 100 WNW 7 11 29.44 997 10 16.09344 0 0
8:35 am 08:35 Cloudy 36 2 36 2 100 100 NW 22 35 29.44 997 10 16.09344 0 0
8:55 am 08:55 Cloudy 36 2 36 2 100 100 WNW 21 33 29.47 998 10 16.09344 0 0
9:15 am 09:15 Cloudy 36 2 36 2 100 100 NW 23 37 29.47 998 10 16.09344 0 0
9:35 am 09:35 Cloudy 36 2 34 1 93 93 NW 23 37 29.5 999 10 16.09344 0 0
9:55 am 09:55 Cloudy 34 1 32 0 93 93 NNW 18 30 29.53 1000 10 16.09344 0 0
10:15 am 10:15 Cloudy 34 1 30 -1 87 87 NNW 24 39 29.56 1001 10 16.09344 0 0
10:35 am 10:35 Cloudy 34 1 28 -2 81 81 NW 36 57 29.56 1001 10 16.09344 0 0
10:55 am 10:55 Cloudy 32 0 28 -2 87 87 NW 31 50 29.59 1002 10 16.09344 0 0
11:15 am 11:15 Mostly Cloudy 32 0 27 -3 80 80 NNW 28 44 29.59 1002 10 16.09344 0 0
11:35 am 11:35 Mostly Cloudy 32 0 27 -3 80 80 NW 24 39 29.62 1003 10 16.09344 0 0
11:55 am 11:55 Mostly Cloudy 32 0 25 -4 75 75 NNW 24 39 29.62 1003 10 16.09344 0 0
12:15 pm 12:15 Mostly Cloudy 32 0 23 -5 69 69 NNW 32 52 29.62 1003 10 16.09344 0 0
12:35 pm 12:35 Mostly Cloudy 32 0 21 -6 64 64 N 24 39 29.65 1004 10 16.09344 0 0
12:55 pm 12:55 Partly Cloudy 32 0 23 -5 69 69 N 21 33 29.65 1004 10 16.09344 0 0
1:15 pm 13:15 Mostly Cloudy 32 0 21 -6 64 64 NNW 20 31 29.65 1004 10 16.09344 0 0
1:35 pm 13:35 Cloudy 32 0 23 -5 69 69 NNW 18 30 29.68 1005 10 16.09344 0 0
1:55 pm 13:55 Mostly Cloudy 32 0 21 -6 64 64 NNW 28 44 29.68 1005 10 16.09344 0 0
2:15 pm 14:15 Cloudy 32 0 21 -6 64 64 NW 23 37 29.71 1006 10 16.09344 0 0
2:35 pm 14:35 Cloudy 32 0 19 -7 60 60 N 26 43 29.71 1006 10 16.09344 0 0
2:55 pm 14:55 Mostly Cloudy 30 -1 19 -7 64 64 NNW 25 41 29.74 1007 10 16.09344 0 0
3:15 pm 15:15 Partly Cloudy 30 -1 18 -8 59 59 NNW 24 39 29.74 1007 10 16.09344 0 0
3:35 pm 15:35 Sunny 30 -1 18 -8 59 59 NNW 28 44 29.74 1007 10 16.09344 0 0
3:55 pm 15:55 Sunny 28 -2 16 -9 59 59 NNW 32 52 29.77 1008 10 16.09344 0 0
4:15 pm 16:15 Sunny 28 -2 14 -10 55 55 NNW 29 46 29.8 1009 10 16.09344 0 0
4:35 pm 16:35 Sunny 28 -2 14 -10 55 55 NNW 24 39 29.8 1009 10 16.09344 0 0
4:55 pm 16:55 Sunny 28 -2 14 -10 55 55 NNW 25 41 29.8 1009 10 16.09344 0 0
5:15 pm 17:15 Partly Cloudy 27 -3 14 -10 59 59 NNW 28 44 29.83 1010 10 16.09344 0 0
5:35 pm 17:35 Partly Cloudy 27 -3 12 -11 54 54 NNW 26 43 29.85 1011 10 16.09344 0 0
5:55 pm 17:55 Partly Cloudy 27 -3 10 -12 50 50 NW 24 39 29.88 1012 10 16.09344 0 0
6:15 pm 18:15 Clear 25 -4 10 -12 54 54 NW 26 43 29.88 1012 10 16.09344 0 0
6:35 pm 18:35 Clear 25 -4 10 -12 54 54 NNW 21 33 29.91 1013 10 16.09344 0 0
6:55 pm 18:55 Clear 25 -4 9 -13 50 50 NNW 24 39 29.91 1013 10 16.09344 0 0
7:15 pm 19:15 Clear 23 -5 7 -14 50 50 NNW 25 41 29.94 1014 10 16.09344 0 0
7:35 pm 19:35 Clear 23 -5 7 -14 50 50 NNW 25 41 29.94 1014 10 16.09344 0 0
7:55 pm 19:55 Clear 23 -5 9 -13 54 54 NW 28 44 29.94 1014 10 16.09344 0 0
8:15 pm 20:15 Clear 23 -5 9 -13 54 54 NW 17 28 29.97 1015 10 16.09344 0 0
8:35 pm 20:35 Clear 21 -6 5 -15 49 49 NNW 28 44 29.97 1015 10 16.09344 0 0
8:55 pm 20:55 Clear 21 -6 5 -15 49 49 NNW 30 48 30 1016 10 16.09344 0 0
9:15 pm 21:15 Clear 21 -6 5 -15 49 49 NW 21 33 30 1016 10 16.09344 0 0
9:35 pm 21:35 Clear 19 -7 3 -16 49 49 undefined N/A 30 1016 10 16.09344 0 0
9:55 pm 21:55 Clear 19 -7 5 -15 53 53 NW 29 46 30.03 1017 10 16.09344 0 0
10:15 pm 22:15 Clear 19 -7 3 -16 49 49 NNW 29 46 30.06 1018 10 16.09344 0 0
10:35 pm 22:35 Clear 18 -8 1 -17 49 49 NW 28 44 30.06 1018 10 16.09344 0 0
10:55 pm 22:55 Clear 18 -8 3 -16 53 53 NNW 20 31 30.09 1019 10 16.09344 0 0
11:15 pm 23:15 Clear 18 -8 1 -17 49 49 NNW 22 35 30.09 1019 10 16.09344 0 0
11:35 pm 23:35 Clear 18 -8 3 -16 53 53 NNW 20 31 30.09 1019 10 16.09344 0 0
11:55 pm 23:55 Clear 18 -8 3 -16 53 53 NNW 17 28 30.09 1019 10 16.09344 0 0

Powered by AerisWeather